Weather in Shumiha

Russia / Kurgan Oblast     55°13′43″N   63°17′08″E
temp.,
°C
wind,
m/s
gust,
m/s
humid.,
%
clouds,
%
prec.,
mm/h
press.,
hPa
HPBL,
m
6 march, sat
sat623:00−4nnw61095100 3.1 999475
02:00−7wnw61288100 0.6 1002445
05:00−12w6138950 0.6 1007293
08:00−15w49910 0.0 1009178
11:00−10wsw59870 0.0 1010360
14:00−7wsw69832 0.0 1010807
17:00−7sw488541 0.0 1010315
20:00−11sw510873 0.0 1011162
7 march, sun
sun723:00−12sw49916 0.0 1012148
02:00−14sw349145 0.0 101229
05:00−15wsw239273 0.0 101320
08:00−15wnw1193100 0.0 101220
11:00−11ne1189100 0.0 1011188
14:00−9ne3494100 0.2 1008323
17:00−9nne5795100 1.3 1006456
20:00−10n61095100 1.4 1004406
8 march, mon
mon823:00−12nnw61194100 2.2 1005403
02:00−17nw51094100 0.1 1007189
05:00−20wnw489959 0.1 1010130
08:00−21w479634 0.0 101197
11:00−16wsw359017 0.0 1012233
14:00−12ssw6984100 0.0 1012434
17:00−12ssw71392100 0.1 1010577
20:00−9ssw71589100 0.2 1009524
9 march, tue
tue923:00−9ssw7158877 0.2 1010371
02:00−8ssw6139188 0.0 1009324
05:00−6ssw9159493 0.6 1007747
08:00−4ssw101788100 0.8 1005874
11:00−3sw91488100 0.8 1005808
14:00−3sw71194100 0.2 1005857
17:00−3ssw81395100 0.9 1003877
20:00−6nw91590100 3.3 1003860
10 march, wed
wed1023:00−10w5118679 3.3 1007225
02:00−14w45900 0.0 101077
05:00−16wsw349140 0.0 101036
08:00−15wsw2290100 0.0 101020
11:00−11sw2286100 0.0 1009226
14:00−9wsw1182100 0.0 1008486
17:00−9nnw1193100 0.1 1007166
20:00−11nnw1196100 0.4 100721